�������l�o���
Date,Time,MP-1(��Sv/h),MP-2(��Sv/h),MP-3(��Sv/h),MP-4(��Sv/h),MP-5(��Sv/h),MP-6(��Sv/h),MP-7(��Sv/h),MP-8(��Sv/h),����,����(m/s),���J
2019/11/12,00:00,0.715,1.013,0.671,1.256,0.886,0.411,0.715,0.677,�쐼,5.2,��
2019/11/12,00:10,0.716,1.016,0.672,1.257,0.886,0.413,0.714,0.677,�쐼,3.0,��
2019/11/12,00:20,0.714,1.013,0.672,1.259,0.888,0.415,0.716,0.676,��,2.6,��
2019/11/12,00:30,0.715,1.015,0.673,1.258,0.886,0.412,0.715,0.676,���k��,1.9,��
2019/11/12,00:40,0.716,1.014,0.671,1.258,0.888,0.412,0.715,0.679,���쐼,3.0,��
2019/11/12,00:50,0.718,1.014,0.673,1.257,0.888,0.413,0.715,0.675,���쐼,2.5,��
2019/11/12,01:00,0.715,1.012,0.674,1.259,0.886,0.412,0.714,0.678,�쐼,2.9,��
2019/11/12,01:10,0.717,1.014,0.673,1.258,0.886,0.410,0.716,0.678,�쐼,4.9,��
2019/11/12,01:20,0.718,1.014,0.672,1.259,0.888,0.413,0.715,0.676,�쐼,4.7,��
2019/11/12,01:30,0.717,1.015,0.673,1.260,0.887,0.412,0.716,0.677,��쐼,2.8,��
2019/11/12,01:40,0.716,1.015,0.673,1.258,0.888,0.412,0.715,0.677,��쐼,2.5,��
2019/11/12,01:50,0.717,1.016,0.673,1.258,0.888,0.414,0.717,0.678,�쐼,2.4,��
2019/11/12,02:00,0.715,1.015,0.672,1.258,0.888,0.414,0.715,0.678,�쐼,5.2,��
2019/11/12,02:10,0.718,1.015,0.674,1.260,0.887,0.413,0.717,0.677,�쐼,3.6,��
2019/11/12,02:20,0.717,1.015,0.674,1.260,0.889,0.412,0.716,0.678,���쐼,2.7,��
2019/11/12,02:30,0.718,1.017,0.674,1.260,0.888,0.414,0.715,0.678,��쐼,1.7,��
2019/11/12,02:40,0.718,1.015,0.673,1.259,0.889,0.412,0.716,0.678,�쐼,4.9,��
2019/11/12,02:50,0.717,1.018,0.674,1.262,0.891,0.412,0.715,0.678,���쐼,7.1,��
2019/11/12,03:00,0.718,1.016,0.674,1.257,0.892,0.414,0.717,0.679,��,6.6,��
2019/11/12,03:10,0.717,1.017,0.676,1.262,0.888,0.413,0.718,0.678,��,4.9,��
2019/11/12,03:20,0.717,1.016,0.673,1.260,0.890,0.413,0.715,0.677,���k��,2.7,��
2019/11/12,03:30,0.719,1.016,0.673,1.261,0.891,0.413,0.717,0.676,�k��,4.4,��
2019/11/12,03:40,0.717,1.015,0.673,1.260,0.889,0.414,0.714,0.678,�k��,6.4,��
2019/11/12,03:50,0.717,1.015,0.674,1.261,0.888,0.414,0.717,0.678,�k��,6.0,��
2019/11/12,04:00,0.721,1.016,0.675,1.262,0.890,0.415,0.718,0.678,�k�k��,5.3,��
2019/11/12,04:10,0.718,1.015,0.675,1.261,0.890,0.414,0.717,0.678,�k��,6.1,��
2019/11/12,04:20,0.718,1.017,0.675,1.261,0.890,0.413,0.718,0.678,�k��,8.6,��
2019/11/12,04:30,0.717,1.016,0.675,1.264,0.889,0.413,0.717,0.679,�k��,8.3,��
2019/11/12,04:40,0.717,1.016,0.675,1.263,0.891,0.415,0.717,0.677,�k��,7.7,��
2019/11/12,04:50,0.717,1.016,0.674,1.261,0.890,0.414,0.715,0.678,�k��,6.7,��
2019/11/12,05:00,0.718,1.014,0.674,1.261,0.889,0.414,0.715,0.678,���k��,6.4,��
2019/11/12,05:10,0.717,1.015,0.675,1.261,0.890,0.413,0.715,0.679,���k��,6.4,��
2019/11/12,05:20,0.719,1.017,0.673,1.264,0.889,0.414,0.716,0.678,���k��,8.5,��
2019/11/12,05:30,0.717,1.017,0.674,1.262,0.888,0.412,0.715,0.677,���k��,7.5,��
2019/11/12,05:40,0.720,1.017,0.676,1.262,0.888,0.413,0.716,0.678,���k��,8.8,��
2019/11/12,05:50,0.717,1.018,0.675,1.264,0.889,0.414,0.715,0.676,���k��,8.0,��
2019/11/12,06:00,0.717,1.019,0.674,1.264,0.890,0.411,0.713,0.678,���k��,7.4,��
2019/11/12,06:10,0.718,1.018,0.675,1.262,0.890,0.412,0.714,0.675,���k��,8.0,��
2019/11/12,06:20,0.715,1.017,0.675,1.261,0.889,0.413,0.715,0.679,���k��,8.0,��
2019/11/12,06:30,0.716,1.017,0.674,1.262,0.890,0.412,0.716,0.678,���k��,8.8,��
2019/11/12,06:40,0.718,1.016,0.675,1.264,0.888,0.411,0.714,0.678,���k��,9.1,��
2019/11/12,06:50,0.718,1.016,0.675,1.262,0.889,0.412,0.717,0.678,���k��,10.2,��
2019/11/12,07:00,0.716,1.018,0.673,1.263,0.888,0.412,0.716,0.676,���k��,7.1,��
2019/11/12,07:10,0.717,1.019,0.674,1.262,0.889,0.412,0.719,0.678,�k��,7.1,��
2019/11/12,07:20,0.715,1.017,0.676,1.263,0.891,0.412,0.714,0.677,���k��,9.6,��
2019/11/12,07:30,0.718,1.019,0.674,1.264,0.888,0.413,0.716,0.678,���k��,8.0,��
2019/11/12,07:40,0.717,1.019,0.674,1.264,0.891,0.413,0.713,0.677,�k��,8.5,��
2019/11/12,07:50,0.718,1.021,0.676,1.264,0.890,0.414,0.717,0.678,���k��,9.6,��
2019/11/12,08:00,0.719,1.020,0.676,1.263,0.891,0.413,0.716,0.676,�k��,6.4,��
2019/11/12,08:10,0.719,1.019,0.675,1.264,0.891,0.412,0.715,0.677,���k��,6.8,��
2019/11/12,08:20,0.720,1.021,0.675,1.264,0.889,0.413,0.716,0.676,�k��,6.0,��
2019/11/12,08:30,0.719,1.021,0.676,1.265,0.890,0.414,0.717,0.679,���k��,6.7,��
2019/11/12,08:40,0.719,1.019,0.675,1.266,0.890,0.413,0.716,0.676,�k��,6.9,��
2019/11/12,08:50,0.721,1.017,0.677,1.268,0.891,0.413,0.717,0.679,�k��,5.2,��
2019/11/12,09:00,0.719,1.017,0.678,1.268,0.893,0.413,0.716,0.680,�k��,7.1,��
2019/11/12,09:10,0.719,1.012,0.678,1.268,0.892,0.414,0.716,0.679,�k��,3.1,��
2019/11/12,09:20,0.720,1.017,0.676,1.266,0.892,0.415,0.715,0.678,���k��,5.8,��
2019/11/12,09:30,0.719,1.014,0.677,1.266,0.894,0.414,0.717,0.677,�k��,6.3,��
2019/11/12,09:40,0.716,1.015,0.676,1.268,0.891,0.412,0.717,0.680,�k��,8.0,��
2019/11/12,09:50,0.716,1.015,0.678,1.264,0.896,0.412,0.718,0.679,�k��,6.9,��
2019/11/12,10:00,0.717,1.017,0.676,1.267,0.894,0.412,0.717,0.677,�k��,7.4,��
2019/11/12,10:10,0.718,1.019,0.677,1.267,0.892,0.412,0.716,0.678,�k��,9.1,��
2019/11/12,10:20,0.717,1.019,0.678,1.268,0.892,0.412,0.718,0.678,�k��,12.4,��
2019/11/12,10:30,0.716,1.020,0.679,-,0.891,0.411,0.718,0.678,�k��,9.1,��
2019/11/12,10:40,0.718,1.021,0.676,-,0.891,0.411,0.717,0.677,�k��,8.9,��
2019/11/12,10:50,0.719,1.020,0.674,-,0.892,0.410,0.718,0.678,�k��,6.9,��
2019/11/12,11:00,0.720,1.021,0.676,-,0.891,0.411,0.716,0.678,�k��,6.6,��
2019/11/12,11:10,0.719,1.019,0.674,-,0.893,0.410,0.718,0.678,���k��,6.1,��
2019/11/12,11:20,0.719,1.019,0.677,-,0.895,0.411,0.719,0.678,���k��,5.0,��
2019/11/12,11:30,0.718,1.022,0.676,-,0.894,0.412,0.720,0.679,���k��,2.6,��
2019/11/12,11:40,0.716,1.020,0.674,-,0.894,0.411,0.718,0.678,���k��,4.0,��
2019/11/12,11:50,0.719,1.022,0.675,-,0.893,0.410,0.719,0.678,���k��,3.4,��
2019/11/12,12:00,0.718,1.019,0.678,-,0.895,0.411,0.717,0.679,�k��,6.6,��
2019/11/12,12:10,0.719,1.022,0.678,-,0.895,0.412,0.717,0.679,�k��,8.9,��
2019/11/12,12:20,0.719,1.024,0.678,-,0.897,0.413,0.718,0.677,�k��,9.3,��
2019/11/12,12:30,0.720,1.023,0.677,-,0.897,0.414,0.718,0.675,���k��,7.1,��
2019/11/12,12:40,0.719,1.024,0.678,-,0.896,0.412,0.718,0.677,��,5.0,��
2019/11/12,12:50,0.721,1.024,0.678,-,0.897,0.414,0.719,0.677,��,3.6,��
2019/11/12,13:00,0.722,1.026,0.677,-,0.894,0.412,0.719,0.677,���k��,5.3,��
2019/11/12,13:10,0.722,1.024,0.674,-,0.896,0.412,0.717,0.677,�k��,9.6,��
2019/11/12,13:20,0.722,1.027,0.677,-,0.896,0.412,0.718,0.677,�k��,10.1,��
2019/11/12,13:30,0.721,1.024,0.677,-,0.897,0.411,0.718,0.678,�k��,8.5,��
2019/11/12,13:40,0.721,1.023,0.676,-,0.897,0.413,0.718,0.677,�k��,10.8,��
2019/11/12,13:50,0.719,1.022,0.678,-,0.898,0.412,0.718,0.677,�k��,9.6,��
2019/11/12,14:00,0.719,1.024,0.677,-,0.898,0.412,0.718,0.677,�k��,8.0,��
2019/11/12,14:10,0.719,1.026,0.678,-,0.899,0.411,0.718,0.678,�k��,8.5,��
2019/11/12,14:20,0.719,1.027,0.678,-,0.897,0.412,0.719,0.676,�k��,7.5,��
2019/11/12,14:30,0.720,1.024,0.679,-,0.898,0.414,0.716,0.676,�k��,7.5,��
2019/11/12,14:40,0.720,1.026,0.676,-,0.898,0.412,0.717,0.677,�k��,4.9,��
2019/11/12,14:50,0.722,1.024,0.677,-,0.897,0.412,0.717,0.676,�k��,6.0,��
2019/11/12,15:00,0.722,1.027,0.678,-,0.896,0.412,0.718,0.676,�k��,6.6,��
2019/11/12,15:10,0.721,1.025,0.676,1.273,0.897,0.412,0.717,0.677,�k��,8.5,��
2019/11/12,15:20,0.720,1.025,0.679,1.274,0.899,0.414,0.718,0.677,�k��,10.8,��
2019/11/12,15:30,0.720,1.028,0.678,1.274,0.898,0.413,0.718,0.678,���k��,9.4,��
2019/11/12,15:40,0.720,1.030,0.677,1.274,0.899,0.412,0.718,0.678,�k��,8.8,��
2019/11/12,15:50,0.720,1.031,0.677,1.274,0.898,0.412,0.719,0.679,���k��,6.6,��
2019/11/12,16:00,0.719,1.028,0.677,1.275,0.900,0.413,0.718,0.678,�k��,6.6,��
2019/11/12,16:10,0.720,1.030,0.679,1.274,0.899,0.413,0.717,0.679,���k��,6.0,��
2019/11/12,16:20,0.719,1.032,0.679,1.274,0.899,0.413,0.717,0.679,�k��,3.8,��
2019/11/12,16:30,0.719,1.033,0.681,1.274,0.899,0.414,0.716,0.679,�k��,4.4,��
2019/11/12,16:40,0.721,1.031,0.679,1.275,0.899,0.415,0.716,0.680,�k��,4.4,��
2019/11/12,16:50,0.722,1.034,0.680,1.273,0.899,0.413,0.718,0.680,�k��,3.5,��
2019/11/12,17:00,0.720,1.034,0.680,1.276,0.899,0.412,0.718,0.680,�k��,4.3,��
2019/11/12,17:10,0.722,1.033,0.679,1.273,0.901,0.413,0.718,0.680,�k��,3.0,��
2019/11/12,17:20,0.720,1.033,0.679,1.275,0.899,0.412,0.719,0.680,�k�k��,3.4,��
2019/11/12,17:30,0.721,1.035,0.679,1.276,0.898,0.413,0.717,0.680,�k��,3.0,��
2019/11/12,17:40,0.721,1.032,0.680,1.275,0.899,0.413,0.718,0.680,���k��,3.0,��
2019/11/12,17:50,0.721,1.035,0.681,1.274,0.900,0.414,0.719,0.679,���k��,4.3,��
2019/11/12,18:00,0.719,1.032,0.681,1.275,0.900,0.413,0.719,0.681,�k��,3.4,��
2019/11/12,18:10,0.721,1.033,0.681,1.275,0.900,0.413,0.718,0.680,�k��,3.2,��
2019/11/12,18:20,0.721,1.030,0.681,1.273,0.901,0.413,0.719,0.680,�k��,3.2,��
2019/11/12,18:30,0.721,1.031,0.681,1.274,0.900,0.413,0.719,0.679,�k��,3.3,��
2019/11/12,18:40,0.721,1.032,0.679,1.277,0.899,0.414,0.717,0.679,�k��,3.5,��
2019/11/12,18:50,0.722,1.032,0.682,1.275,0.900,0.411,0.719,0.681,�k��,2.2,��
2019/11/12,19:00,0.719,1.031,0.681,1.273,0.901,0.412,0.719,0.680,�k��,3.0,��
2019/11/12,19:10,0.721,1.030,0.679,1.275,0.899,0.413,0.717,0.679,�k��,2.6,��
2019/11/12,19:20,0.723,1.034,0.679,1.278,0.900,0.414,0.718,0.681,���k��,1.7,��
2019/11/12,19:30,0.721,1.031,0.681,1.276,0.900,0.412,0.717,0.679,���k��,2.6,��
2019/11/12,19:40,0.722,1.030,0.681,1.276,0.903,0.412,0.718,0.680,���k��,2.6,��
2019/11/12,19:50,0.722,1.032,0.681,1.274,0.900,0.413,0.719,0.679,��,2.4,��
2019/11/12,20:00,0.720,1.033,0.681,1.275,0.902,0.411,0.717,0.680,��,3.0,��
2019/11/12,20:10,0.720,1.032,0.680,1.274,0.902,0.412,0.717,0.680,��,4.7,��
2019/11/12,20:20,0.718,1.029,0.681,1.277,0.901,0.412,0.719,0.679,��,3.3,��
2019/11/12,20:30,0.720,1.031,0.681,1.277,0.900,0.411,0.720,0.681,��,3.1,��
2019/11/12,20:40,0.721,1.031,0.681,1.276,0.902,0.413,0.719,0.679,���k��,3.8,��
2019/11/12,20:50,0.720,1.030,0.682,1.276,0.903,0.412,0.717,0.678,��,3.8,��
2019/11/12,21:00,0.721,1.032,0.682,1.275,0.902,0.412,0.718,0.680,��,3.1,��
2019/11/12,21:10,0.719,1.031,0.681,1.276,0.901,0.412,0.719,0.680,���k��,3.0,��
2019/11/12,21:20,0.721,1.030,0.681,1.274,0.901,0.412,0.718,0.679,���쐼,2.7,��
2019/11/12,21:30,0.720,1.029,0.681,1.275,0.902,0.411,0.719,0.678,���쐼,3.5,��
2019/11/12,21:40,0.720,1.029,0.682,1.274,0.901,0.413,0.717,0.680,���쐼,4.1,��
2019/11/12,21:50,0.720,1.030,0.681,1.276,0.899,0.413,0.717,0.679,���쐼,4.0,��
2019/11/12,22:00,0.721,1.034,0.680,1.275,0.901,0.412,0.719,0.679,���쐼,4.5,��
2019/11/12,22:10,0.719,1.027,0.680,1.277,0.902,0.412,0.718,0.678,���쐼,3.3,��
2019/11/12,22:20,0.720,1.030,0.679,1.278,0.901,0.413,0.718,0.679,���쐼,3.8,��
2019/11/12,22:30,0.722,1.030,0.680,1.275,0.900,0.412,0.718,0.680,���쐼,2.8,��
2019/11/12,22:40,0.721,1.031,0.680,1.274,0.900,0.413,0.719,0.681,��,3.8,��
2019/11/12,22:50,0.720,1.031,0.680,1.275,0.901,0.414,0.718,0.680,��,3.6,��
2019/11/12,23:00,0.721,1.032,0.681,1.276,0.899,0.412,0.720,0.680,���k��,3.9,��
2019/11/12,23:10,0.721,1.032,0.681,1.275,0.900,0.413,0.718,0.681,���k��,4.3,��
2019/11/12,23:20,0.720,1.031,0.680,1.275,0.900,0.413,0.719,0.680,���k��,4.5,��
2019/11/12,23:30,0.723,1.030,0.679,1.276,0.900,0.412,0.717,0.681,�k��,4.3,��
2019/11/12,23:40,0.722,1.033,0.680,1.276,0.902,0.412,0.720,0.680,���k��,4.7,��
2019/11/12,23:50,0.722,1.033,0.678,1.277,0.902,0.412,0.719,0.680,���k��,4.9,��
